Reflectivity
-20 -20 -20 -20 -20 -19 -14 -20 -20 -20 -20 -20 -20 -20 -20 -20 -20 -20 -20 -20 -20 -20
-20 -20 -20 -20 -20 -20 -20 -20 -20 -20 -20 -20 -20 -20 -20 -20 -20 -20 -20 -20 -20 -20
-20 -20 -20 -20 -20 -20 -20 -20 -20 30 -20 -20 -20 -20 -20 -20 -20 -20 -20 -20 -4 -20
-20 -20 -20 -20 -20 -20 -20 -20 -20 -20 -20 -20 -20 -20 -20 -20 -20 -20 -20 -20 -20 -20
-20 -20 -20 -20 -20 -20 -20 -20 -20 -20 -20 -20 -20 -20 11 -20 -20 -20 -20 -20 -20 -20
-20 -20 -20 -20 -20 -20 -20 -20 -20 -20 -20 -20 -20 16 7 -20 -19 -12 -20 -20 -20 -20
-20 -20 -20 -20 -20 -20 -20 -20 -20 -20 -20 -20 -20 -20 -20 35 30 -20 -20 -20 -20 -20
31 -20 -20 7 -20 -9 -20 -20 -20 -20 -20 1 -20 -20 -20 34 -2 -20 -11 -20 -20 -20
29 10 -19 -9 10 19 20 29 29 -20 -20 -20 -20 -20 2 -19 30 -20 -20 -20 -20 -20
18 25 5 29 24 19 22 32 26 25 12 32 -20 -20 -20 -20 -20 3 -8 -20 -20 -20
17 34 31 13 1 -20 32 27 27 24 11 29 13 -3 -20 -20 -20 -20 -20 -20 -20 -20
30 28 28 30 13 -2 -2 22 13 22 22 30 25 12 11 12 6 -9 -0 -20 -20 -20
27 33 30 19 5 -20 -1 -20 -13 22 20 25 19 11 7 -3 3 23 22 -20 -20 -20
17 30 30 15 -20 -20 -20 -20 -20 -20 -20 -20 -17 4 17 -20 -20 -14 -12 -1 -20 -20
Wind_Speed
7 4 4 5 4 4 4 3 2 1 3 4 4 2 2 1 1 2 2 3 4 3
6 6 6 7 4 3 4 3 3 2 2 2 5 4 4 2 1 1 2 1 2 4
7 7 6 5 6 6 6 4 5 2 1 4 6 5 3 3 2 1 2 2 2 1
7 8 6 6 6 7 5 7 6 3 2 5 4 4 4 4 4 3 3 1 2 2
8 9 8 7 8 6 7 6 5 5 5 4 5 4 6 6 4 5 4 4 4 5
9 8 10 9 7 6 6 6 5 5 5 6 5 2 4 5 5 5 3 4 6 6
8 9 10 10 7 7 8 7 6 5 5 3 4 4 4 4 3 4 3 1 2 2
8 6 5 3 2 2 6 6 6 4 6 4 5 3 2 4 4 3 2 2 4 4
5 4 6 7 5 5 4 3 2 4 7 5 3 4 4 3 4 2 1 5 5 5
5 1 5 6 8 7 7 4 2 5 7 3 2 6 6 4 3 1 3 5 6 4
6 4 2 3 5 5 4 7 5 4 7 5 3 6 5 1 3 4 5 6 6 6
8 6 5 3 3 4 6 6 6 6 7 2 3 5 4 8 6 6 6 5 5 5
7 5 5 4 5 4 5 7 7 7 6 4 2 10 7 4 5 6 5 5 5 9
8 7 5 4 4 6 7 6 6 5 4 5 5 7 12 8 3 4 5 4 3 3
Wind_Direction
192 193 176 187 201 197 192 200 197 182 146 248 201 205 176 163 163 133 138 121 146 181
179 185 189 197 199 174 201 209 207 233 187 259 260 205 187 176 244 198 129 122 90 150
177 185 181 190 196 209 215 215 227 214 241 296 253 212 181 174 206 159 227 204 144 143
170 180 177 193 200 213 195 207 209 218 263 277 240 192 168 204 216 171 192 232 253 249
176 180 181 201 209 206 205 203 204 225 231 263 260 204 208 209 198 195 212 234 212 239
196 177 193 202 203 199 227 229 224 202 226 251 253 282 245 219 230 204 227 254 221 234
204 192 203 203 193 192 207 212 223 226 223 172 111 54 18 315 239 239 218 126 68 218
222 186 147 120 78 294 204 217 207 170 112 100 94 64 340 300 302 234 226 92 100 73
189 151 170 129 140 110 17 253 123 132 120 96 78 -0 274 327 295 300 98 132 103 78
125 289 227 182 172 188 149 104 107 113 85 45 65 359 333 319 270 189 126 153 129 100
157 185 179 136 183 175 166 161 149 127 111 113 357 336 317 257 118 85 88 101 116 119
140 154 161 169 130 126 127 127 131 116 117 130 262 326 17 114 99 96 80 81 84 97
130 149 148 155 122 76 92 104 102 104 116 156 43 18 29 121 128 129 119 80 70 68
124 130 148 121 110 109 100 95 94 109 102 78 51 33 22 55 116 133 114 108 92 48